{"data":{"norad_id":61633,"epoch":"2026-05-25T04:25:28.894080Z","epoch_age_seconds":58803,"freshness":"FRESH","line1":"1 61633U 24191N   26145.18436220  .00000510  00000+0  28056-4 0  9990","line2":"2 61633  43.0010  86.1071 0001137 266.4535  93.6187 15.27579986 89195","mean_motion":15.27579986,"eccentricity":0.0001137,"inclination_deg":43.001,"raan_deg":86.1071,"arg_perigee_deg":266.4535,"mean_anomaly_deg":93.6187,"bstar":2.8056e-5,"rev_number":8919,"period_min":94.26674957759,"perigee_km":482.2690210968,"apogee_km":483.82925482458,"semimajor_km":6861.1861379607,"source":"CELESTRAK","updated_at":"2026-05-25T13:38:19.408914Z"}}